Location: Bratislava
(0.0000°N, 17.1167°E)
Time: 04:20:17
(UTC+01:00)

Cosmos 2112 Rocket - Pass Details

Date: 24 January 2021
Orbit: 757 x 786 km, 74.1° (Epoch: 06 March)

Event Time Altitude Azimuth Distance (km) Brightness Sun altitude
Rises 19:25:45 0° 349° (N) 3,199 7.1 -19.3°
Reaches altitude 10° 19:28:07 10° 349° (N) 2,275 6.3 -19.9°
Maximum altitude 19:33:16 85° 77° (ENE) 762 3.8 -21.1°
Drops below altitude 10° 19:38:27 10° 166° (SSE) 2,284 6.5 -22.3°
Sets 19:40:49 0° 167° (SSE) 3,213 7.3 -22.9°
